Total_Precipitation_Accumulation
0.05 0.04 0.02 0.01 0.01 0.01 0.02 0.01 0.01 0.01 0.01 0.01 0.01 0.01 0.01 0.02 0.02 0.02 0.03 0.02 0.02 0.02 0.02 0.02 0.02 0.02 0.03 0.03 0.03 0.03 0.03 0.03 0.02 0.03 0.03 0.04 0.04 0.03 0.03 0.02 0.02 0.02 0.02 0.03 0.07 0.13 0.14 0.13 0.12 0.11 0.12 0.19 0.23 0.21 0.19 0.17 0.15 0.14 0.15 0.18 0.20 0.19 0.17 0.24 0.28 0.20 0.07 0.02 0.01 0.02 0.03 0.04 0.06 0.08 0.12 0.14 0.11 0.08 0.09 0.11 0.20 0.24 0.23 0.24 0.25
0.02 0.01 0.01 0.01 0.01 0.02 0.02 0.02 0.02 0.01 0.01 0.01 0.01 0.01 0.01 0.01 0.01 0.02 0.02 0.02 0.04 0.06 0.06 0.16 0.05 0.06 0.06 0.04 0.04 0.03 0.03 0.03 0.03 0.03 0.03 0.04 0.03 0.03 0.03 0.03 0.03 0.02 0.02 0.02 0.02 0.03 0.07 0.14 0.12 0.10 0.12 0.18 0.22 0.23 0.22 0.22 0.22 0.20 0.17 0.16 0.19 0.19 0.16 0.19 0.24 0.19 0.15 0.05 0.02 0.02 0.03 0.04 0.08 0.07 0.11 0.12 0.14 0.13 0.11 0.12 0.11 0.17 0.21 0.21 0.26
0.01 0.01 0.02 0.02 0.02 0.02 0.02 0.02 0.03 0.03 0.03 0.04 0.03 0.03 0.03 0.02 0.02 0.03 0.03 0.03 0.04 0.05 0.08 0.10 0.10 0.11 0.12 0.13 0.12 0.11 0.09 0.08 0.07 0.07 0.07 0.07 0.07 0.07 0.05 0.04 0.03 0.03 0.03 0.02 0.02 0.07 0.06 0.08 0.10 0.11 0.14 0.19 0.19 0.22 0.22 0.24 0.24 0.24 0.20 0.17 0.14 0.13 0.13 0.15 0.19 0.21 0.16 0.10 0.04 0.03 0.04 0.05 0.07 0.13 0.11 0.11 0.11 0.13 0.16 0.16 0.18 0.18 0.20 0.17 0.20
0.01 0.02 0.03 0.03 0.02 0.03 0.03 0.03 0.03 0.03 0.02 0.04 0.02 0.04 0.02 0.04 0.04 0.07 0.07 0.10 0.11 0.09 0.09 0.09 0.07 0.06 0.06 0.06 0.05 0.05 0.05 0.04 0.04 0.04 0.04 0.04 0.04 0.03 0.04 0.05 0.07 0.09 0.08 0.05 0.06 0.06 0.05 0.08 0.07 0.06 0.12 0.19 0.19 0.17 0.18 0.22 0.24 0.24 0.22 0.18 0.14 0.12 0.11 0.12 0.17 0.22 0.17 0.15 0.08 0.06 0.05 0.05 0.07 0.07 0.09 0.13 0.15 0.18 0.21 0.22 0.21 0.22 0.19 0.19 0.22
0.02 0.03 0.02 0.03 0.02 0.03 0.03 0.03 0.02 0.03 0.05 0.04 0.04 0.06 0.05 0.05 0.06 0.07 0.07 0.06 0.06 0.06 0.06 0.06 0.06 0.06 0.07 0.06 0.05 0.05 0.05 0.05 0.05 0.05 0.04 0.04 0.04 0.04 0.04 0.04 0.04 0.04 0.05 0.06 0.07 0.08 0.08 0.07 0.09 0.13 0.11 0.09 0.13 0.19 0.19 0.22 0.27 0.23 0.21 0.20 0.17 0.13 0.13 0.12 0.16 0.15 0.22 0.20 0.14 0.07 0.06 0.05 0.06 0.06 0.08 0.12 0.15 0.20 0.27 0.26 0.28 0.27 0.24 0.20 0.18
0.03 0.03 0.02 0.03 0.04 0.03 0.03 0.03 0.03 0.03 0.03 0.03 0.04 0.04 0.04 0.05 0.05 0.05 0.05 0.06 0.07 0.07 0.07 0.07 0.07 0.06 0.07 0.06 0.05 0.05 0.05 0.06 0.06 0.06 0.05 0.05 0.05 0.05 0.05 0.05 0.05 0.05 0.05 0.04 0.04 0.05 0.07 0.08 0.08 0.08 0.11 0.12 0.09 0.09 0.13 0.18 0.26 0.29 0.27 0.23 0.21 0.19 0.19 0.19 0.13 0.13 0.18 0.16 0.13 0.12 0.07 0.08 0.08 0.08 0.09 0.10 0.13 0.17 0.22 0.25 0.27 0.28 0.30 0.28 0.24
0.03 0.02 0.03 0.04 0.04 0.03 0.03 0.02 0.02 0.02 0.03 0.04 0.04 0.05 0.05 0.06 0.06 0.06 0.07 0.08 0.08 0.07 0.06 0.06 0.05 0.06 0.05 0.05 0.05 0.05 0.05 0.05 0.05 0.05 0.05 0.04 0.05 0.06 0.05 0.05 0.05 0.05 0.05 0.04 0.04 0.04 0.05 0.06 0.07 0.08 0.10 0.10 0.12 0.10 0.12 0.14 0.19 0.17 0.24 0.23 0.25 0.25 0.28 0.28 0.27 0.23 0.23 0.19 0.16 0.14 0.10 0.07 0.08 0.10 0.07 0.08 0.11 0.13 0.16 0.20 0.25 0.28 0.26 0.28 0.29
0.05 0.05 0.04 0.03 0.02 0.02 0.02 0.02 0.03 0.04 0.04 0.04 0.05 0.06 0.07 0.08 0.08 0.09 0.08 0.08 0.08 0.06 0.06 0.06 0.05 0.06 0.06 0.06 0.06 0.06 0.06 0.07 0.07 0.07 0.06 0.05 0.06 0.06 0.06 0.07 0.06 0.06 0.05 0.05 0.05 0.05 0.06 0.06 0.06 0.07 0.08 0.10 0.11 0.11 0.12 0.14 0.17 0.24 0.17 0.39 0.26 0.35 0.35 0.29 0.29 0.31 0.27 0.22 0.20 0.19 0.12 0.09 0.08 0.07 0.07 0.09 0.13 0.15 0.14 0.16 0.20 0.21 0.24 0.25 0.26
0.05 0.03 0.02 0.02 0.03 0.03 0.03 0.04 0.04 0.04 0.04 0.05 0.07 0.08 0.09 0.10 0.11 0.11 0.11 0.08 0.07 0.07 0.07 0.08 0.08 0.08 0.07 0.07 0.07 0.07 0.09 0.09 0.09 0.16 0.18 0.11 0.08 0.09 0.09 0.10 0.11 0.11 0.10 0.09 0.08 0.08 0.08 0.08 0.08 0.09 0.09 0.08 0.09 0.11 0.13 0.13 0.17 0.16 0.17 0.22 0.25 0.28 0.27 0.32 0.33 0.33 0.32 0.28 0.28 0.16 0.14 0.13 0.09 0.09 0.11 0.11 0.12 0.12 0.12 0.10 0.12 0.12 0.16 0.19 0.23
0.02 0.03 0.03 0.03 0.03 0.04 0.07 0.06 0.07 0.05 0.11 0.08 0.09 0.10 0.11 0.12 0.15 0.13 0.09 0.09 0.09 0.09 0.11 0.12 0.13 0.11 0.10 0.09 0.09 0.11 0.13 0.16 0.14 0.10 0.14 0.19 0.25 0.27 0.26 0.24 0.22 0.20 0.19 0.17 0.15 0.13 0.12 0.13 0.12 0.10 0.10 0.12 0.12 0.15 0.17 0.20 0.23 0.27 0.24 0.26 0.29 0.28 0.29 0.31 0.31 0.30 0.32 0.34 0.33 0.22 0.22 0.15 0.10 0.06 0.07 0.06 0.05 0.04 0.05 0.09 0.11 0.11 0.13 0.17 0.19
0.03 0.03 0.04 0.04 0.05 0.06 0.07 0.06 0.12 0.08 0.11 0.10 0.11 0.12 0.12 0.12 0.12 0.11 0.10 0.11 0.12 0.10 0.10 0.10 0.11 0.11 0.12 0.12 0.11 0.12 0.14 0.11 0.12 0.16 0.28 0.46 0.49 0.49 0.40 0.31 0.25 0.23 0.22 0.22 0.20 0.16 0.14 0.12 0.12 0.12 0.13 0.15 0.17 0.18 0.20 0.25 0.26 0.31 0.32 0.30 0.38 0.43 0.43 0.36 0.29 0.25 0.27 0.31 0.27 0.28 0.19 0.16 0.08 0.05 0.04 0.04 0.03 0.04 0.06 0.06 0.07 0.09 0.14 0.20 0.24
0.04 0.04 0.04 0.04 0.04 0.05 0.06 0.07 0.09 0.10 0.11 0.13 0.13 0.13 0.12 0.13 0.14 0.11 0.11 0.10 0.10 0.10 0.11 0.10 0.11 0.22 0.15 0.15 0.15 0.15 0.12 0.12 0.18 0.28 0.38 0.62 0.70 0.64 0.62 0.48 0.38 0.32 0.26 0.23 0.19 0.16 0.15 0.13 0.12 0.11 0.11 0.12 0.12 0.14 0.15 0.17 0.20 0.22 0.29 0.33 0.37 0.43 0.49 0.44 0.41 0.32 0.26 0.26 0.27 0.24 0.21 0.15 0.11 0.06 0.05 0.06 0.06 0.05 0.06 0.07 0.08 0.11 0.13 0.15 0.18
0.05 0.05 0.04 0.05 0.05 0.06 0.08 0.09 0.11 0.12 0.12 0.13 0.13 0.13 0.14 0.15 0.13 0.15 0.13 0.12 0.12 0.14 0.12 0.13 0.15 0.15 0.18 0.19 0.18 0.16 0.29 0.16 0.23 0.35 0.44 0.74 0.85 0.92 0.83 0.73 0.52 0.42 0.33 0.26 0.23 0.18 0.16 0.15 0.13 0.11 0.09 0.09 0.12 0.11 0.12 0.14 0.14 0.19 0.24 0.27 0.40 0.63 0.64 0.65 0.54 0.41 0.47 0.46 0.40 0.34 0.30 0.20 0.19 0.14 0.09 0.09 0.14 0.10 0.09 0.11 0.10 0.10 0.11 0.14 0.13
0.06 0.05 0.05 0.06 0.06 0.08 0.10 0.11 0.11 0.11 0.11 0.12 0.13 0.14 0.17 0.16 0.16 0.18 0.17 0.17 0.16 0.14 0.14 0.15 0.17 0.19 0.23 0.27 0.29 0.25 0.22 0.21 0.26 0.37 0.57 0.76 0.89 1.20 0.87 0.75 0.57 0.40 0.31 0.25 0.21 0.18 0.16 0.16 0.16 0.15 0.13 0.13 0.15 0.15 0.15 0.15 0.16 0.18 0.21 0.24 0.26 0.28 0.46 0.54 0.52 0.48 0.41 0.38 0.45 0.44 0.32 0.29 0.20 0.15 0.14 0.14 0.18 0.15 0.16 0.16 0.15 0.14 0.14 0.15 0.11
0.06 0.05 0.06 0.06 0.07 0.09 0.10 0.11 0.11 0.11 0.11 0.12 0.13 0.14 0.16 0.18 0.19 0.20 0.21 0.21 0.22 0.20 0.19 0.21 0.21 0.23 0.24 0.27 0.32 0.29 0.24 0.24 0.37 0.55 0.68 0.87 1.04 1.23 0.89 0.74 0.58 0.44 0.32 0.26 0.23 0.21 0.19 0.18 0.16 0.15 0.14 0.16 0.17 0.17 0.21 0.21 0.22 0.21 0.23 0.19 0.18 0.18 0.17 0.32 0.28 0.37 0.41 0.38 0.30 0.22 0.17 0.17 0.14 0.14 0.28 0.22 0.29 0.23 0.24 0.18 0.20 0.15 0.17 0.18 0.19
0.05 0.05 0.07 0.07 0.09 0.10 0.11 0.12 0.11 0.12 0.12 0.13 0.16 0.17 0.17 0.18 0.18 0.17 0.20 0.20 0.20 0.20 0.19 0.20 0.19 0.18 0.16 0.17 0.22 0.25 0.21 0.24 0.37 0.59 0.83 1.06 1.18 1.03 0.88 0.79 0.53 0.43 0.36 0.40 0.31 0.28 0.25 0.27 0.24 0.22 0.19 0.18 0.18 0.30 0.26 0.27 0.26 0.29 0.27 0.22 0.19 0.16 0.15 0.12 0.14 0.18 0.19 0.35 0.25 0.18 0.15 0.14 0.18 0.16 0.19 0.18 0.30 0.28 0.24 0.27 0.30 0.34 0.36 0.36 0.33
0.06 0.07 0.08 0.09 0.11 0.12 0.13 0.14 0.15 0.14 0.15 0.16 0.16 0.16 0.18 0.18 0.20 0.21 0.24 0.22 0.23 0.22 0.22 0.19 0.18 0.16 0.17 0.19 0.20 0.15 0.15 0.21 0.30 0.51 0.72 0.85 1.08 1.00 0.93 0.77 0.57 0.43 0.38 0.31 0.31 0.30 0.31 0.29 0.31 0.27 0.24 0.22 0.22 0.38 0.47 0.43 0.41 0.36 0.31 0.28 0.23 0.22 0.20 0.14 0.31 0.52 0.69 0.77 0.74 0.70 0.62 0.58 0.70 0.89 0.85 0.72 0.48 0.48 0.52 0.55 0.47 0.33 0.34 0.37 0.29
0.08 0.09 0.11 0.12 0.13 0.14 0.15 0.16 0.17 0.16 0.15 0.17 0.17 0.18 0.20 0.21 0.20 0.19 0.22 0.21 0.19 0.15 0.14 0.14 0.14 0.15 0.15 0.15 0.17 0.16 0.12 0.13 0.23 0.48 0.61 0.75 1.04 1.09 1.02 0.81 0.62 0.52 0.43 0.35 0.33 0.32 0.27 0.28 0.31 0.31 0.32 0.28 0.33 0.43 0.63 0.59 0.66 0.50 0.38 0.34 0.31 0.29 0.23 0.17 0.17 0.18 0.39 0.61 0.79 0.95 0.96 0.81 0.71 0.71 0.76 0.77 0.94 0.77 0.67 0.89 0.56 0.34 0.35 0.31 0.29
0.10 0.13 0.14 0.13 0.15 0.15 0.15 0.14 0.15 0.15 0.16 0.15 0.18 0.21 0.20 0.18 0.14 0.14 0.15 0.15 0.14 0.14 0.15 0.15 0.12 0.11 0.11 0.14 0.15 0.20 0.21 0.21 0.26 0.36 0.48 0.69 0.77 0.84 0.75 0.70 0.62 0.49 0.45 0.42 0.36 0.37 0.32 0.32 0.34 0.36 0.32 0.29 0.50 0.59 0.78 0.74 0.73 0.55 0.38 0.34 0.33 0.27 0.20 0.18 0.22 0.27 0.27 0.25 0.27 0.31 0.43 0.60 0.67 0.63 0.55 0.61 0.58 0.77 0.59 0.51 0.46 0.46 0.53 0.38 0.30
0.13 0.14 0.14 0.16 0.13 0.12 0.12 0.14 0.15 0.16 0.17 0.16 0.17 0.19 0.17 0.15 0.15 0.16 0.14 0.15 0.14 0.14 0.14 0.13 0.13 0.11 0.11 0.14 0.16 0.22 0.28 0.24 0.28 0.31 0.50 0.65 0.88 0.82 0.77 0.73 0.67 0.55 0.53 0.51 0.50 0.43 0.37 0.37 0.37 0.43 0.49 0.57 0.60 0.79 0.83 1.33 0.94 0.68 0.44 0.41 0.41 0.32 0.17 0.15 0.17 0.20 0.22 0.21 0.18 0.17 0.21 0.24 0.33 0.36 0.37 0.35 0.39 0.47 0.53 0.48 0.44 0.44 0.46 0.39 0.30
0.14 0.14 0.14 0.11 0.11 0.11 0.12 0.15 0.16 0.16 0.17 0.20 0.20 0.17 0.15 0.16 0.15 0.15 0.15 0.14 0.16 0.16 0.12 0.11 0.13 0.13 0.13 0.14 0.18 0.24 0.30 0.37 0.37 0.41 0.49 0.55 0.73 0.93 0.72 0.61 0.50 0.52 0.59 0.63 0.54 0.45 0.36 0.31 0.29 0.29 0.34 0.45 0.64 0.78 0.90 1.01 0.99 0.84 0.88 0.64 0.32 0.17 0.22 0.33 0.35 0.38 0.29 0.25 0.22 0.20 0.20 0.21 0.25 0.27 0.30 0.28 0.28 0.33 0.33 0.39 0.40 0.34 0.33 0.36 0.37
0.12 0.12 0.11 0.10 0.11 0.12 0.14 0.15 0.17 0.19 0.18 0.18 0.18 0.15 0.13 0.14 0.15 0.16 0.17 0.19 0.17 0.14 0.13 0.17 0.20 0.18 0.17 0.21 0.26 0.32 0.28 0.26 0.24 0.22 0.24 0.40 0.55 0.83 0.69 0.53 0.43 0.57 0.69 0.62 0.50 0.39 0.32 0.27 0.26 0.28 0.34 0.45 0.56 0.80 1.08 1.08 1.21 1.00 0.85 0.84 0.81 0.66 0.47 0.46 0.42 0.41 0.35 0.28 0.25 0.25 0.25 0.24 0.28 0.25 0.23 0.22 0.18 0.18 0.22 0.23 0.27 0.29 0.23 0.23 0.25
0.12 0.12 0.11 0.11 0.11 0.13 0.15 0.17 0.18 0.18 0.19 0.19 0.22 0.19 0.15 0.14 0.14 0.17 0.21 0.24 0.23 0.24 0.23 0.24 0.25 0.23 0.20 0.19 0.20 0.23 0.24 0.24 0.23 0.22 0.22 0.33 0.47 0.67 0.74 0.68 0.69 0.61 0.66 0.60 0.45 0.35 0.30 0.30 0.28 0.30 0.42 0.60 0.79 0.96 1.04 1.21 0.92 0.94 1.29 1.20 0.99 0.88 0.80 0.74 0.64 0.53 0.43 0.36 0.30 0.28 0.24 0.21 0.23 0.22 0.20 0.18 0.16 0.14 0.15 0.18 0.19 0.21 0.28 0.30 0.20
0.12 0.13 0.12 0.12 0.12 0.13 0.14 0.15 0.17 0.19 0.22 0.22 0.19 0.17 0.15 0.15 0.17 0.18 0.20 0.25 0.26 0.25 0.19 0.21 0.22 0.22 0.22 0.22 0.24 0.25 0.25 0.24 0.24 0.25 0.25 0.27 0.41 0.65 0.74 0.77 0.82 0.67 0.54 0.43 0.35 0.33 0.32 0.29 0.28 0.37 0.67 0.84 1.01 1.04 1.17 1.18 0.93 0.98 1.15 0.93 0.96 0.97 0.85 0.82 0.76 0.69 0.57 0.42 0.34 0.29 0.25 0.19 0.15 0.18 0.17 0.15 0.15 0.15 0.14 0.16 0.19 0.21 0.43 0.30 0.22
0.14 0.14 0.13 0.12 0.13 0.13 0.14 0.16 0.16 0.18 0.18 0.19 0.19 0.17 0.15 0.15 0.18 0.17 0.21 0.26 0.28 0.26 0.21 0.24 0.27 0.26 0.27 0.31 0.33 0.31 0.28 0.25 0.25 0.25 0.26 0.26 0.35 0.57 0.70 0.66 0.57 0.52 0.51 0.39 0.33 0.32 0.32 0.46 0.61 0.66 0.73 0.85 0.88 0.88 0.95 0.89 0.96 0.86 0.88 0.79 0.79 0.70 0.87 0.91 0.73 0.54 0.52 0.49 0.37 0.27 0.20 0.18 0.15 0.14 0.15 0.17 0.20 0.18 0.18 0.19 0.23 0.21 0.23 0.26 0.21
0.15 0.14 0.13 0.12 0.12 0.14 0.15 0.13 0.14 0.16 0.15 0.13 0.14 0.15 0.16 0.17 0.21 0.20 0.24 0.27 0.24 0.27 0.30 0.30 0.31 0.32 0.36 0.38 0.41 0.38 0.32 0.30 0.27 0.25 0.27 0.27 0.29 0.37 0.51 0.41 0.39 0.38 0.40 0.37 0.31 0.30 0.42 0.51 0.57 0.53 0.56 0.59 0.63 0.61 0.74 0.46 0.46 0.58 0.68 0.73 0.79 0.74 0.69 0.70 0.69 0.56 0.45 0.32 0.26 0.25 0.23 0.22 0.24 0.21 0.20 0.20 0.22 0.22 0.19 0.19 0.19 0.25 0.22 0.23 0.25
0.15 0.13 0.11 0.12 0.13 0.14 0.15 0.15 0.16 0.14 0.12 0.12 0.12 0.13 0.15 0.18 0.20 0.24 0.28 0.28 0.28 0.32 0.35 0.37 0.40 0.41 0.45 0.39 0.37 0.34 0.32 0.29 0.27 0.25 0.25 0.31 0.32 0.31 0.42 0.41 0.38 0.35 0.34 0.38 0.38 0.36 0.34 0.41 0.42 0.44 0.45 0.46 0.51 0.56 0.44 0.34 0.40 0.53 0.53 0.57 0.63 0.73 0.64 0.53 0.46 0.47 0.42 0.30 0.24 0.22 0.21 0.23 0.30 0.35 0.36 0.30 0.27 0.22 0.20 0.17 0.17 0.17 0.18 0.21 0.21
0.16 0.14 0.12 0.13 0.15 0.15 0.16 0.15 0.15 0.14 0.14 0.15 0.17 0.14 0.14 0.14 0.20 0.25 0.31 0.39 0.47 0.47 0.48 0.50 0.54 0.61 0.64 0.48 0.38 0.29 0.31 0.32 0.29 0.33 0.36 0.39 0.41 0.45 0.47 0.43 0.39 0.32 0.33 0.35 0.35 0.33 0.35 0.41 0.50 0.58 0.68 0.71 0.64 0.59 0.56 0.59 0.52 0.41 0.33 0.36 0.47 0.52 0.58 0.62 0.62 0.40 0.37 0.28 0.26 0.27 0.28 0.31 0.40 0.39 0.42 0.42 0.31 0.21 0.19 0.24 0.18 0.17 0.16 0.18 0.27
0.15 0.13 0.12 0.13 0.13 0.13 0.14 0.14 0.13 0.13 0.14 0.15 0.19 0.22 0.21 0.23 0.27 0.24 0.21 0.32 0.50 0.79 0.99 0.88 0.81 0.87 0.70 0.64 0.54 0.41 0.37 0.39 0.39 0.37 0.39 0.47 0.56 0.59 0.56 0.49 0.42 0.40 0.37 0.36 0.35 0.41 0.44 0.48 0.47 0.42 0.38 0.39 0.48 0.52 0.48 0.44 0.41 0.37 0.34 0.34 0.37 0.51 0.62 0.63 0.68 0.62 0.50 0.40 0.36 0.36 0.35 0.36 0.35 0.32 0.31 0.40 0.36 0.33 0.23 0.24 0.20 0.17 0.19 0.18 0.20
0.18 0.14 0.13 0.13 0.13 0.14 0.14 0.12 0.12 0.13 0.15 0.15 0.15 0.18 0.22 0.27 0.30 0.37 0.34 0.27 0.34 0.51 0.90 1.01 1.02 0.96 0.91 0.71 0.61 0.68 0.67 0.54 0.53 0.68 0.69 0.79 0.69 0.63 0.54 0.60 0.52 0.45 0.38 0.33 0.38 0.35 0.38 0.41 0.41 0.40 0.41 0.40 0.43 0.48 0.49 0.47 0.49 0.48 0.44 0.40 0.37 0.39 0.47 0.61 0.57 0.48 0.45 0.46 0.42 0.39 0.34 0.33 0.34 0.34 0.32 0.32 0.26 0.25 0.29 0.30 0.27 0.22 0.24 0.26 0.23
0.22 0.17 0.15 0.14 0.14 0.16 0.15 0.14 0.13 0.15 0.15 0.15 0.15 0.17 0.17 0.18 0.24 0.29 0.27 0.28 0.29 0.45 0.63 0.79 0.86 0.82 1.00 0.92 0.59 0.49 0.49 0.44 0.55 0.58 0.68 0.79 0.79 0.54 0.59 0.57 0.51 0.55 0.46 0.41 0.43 0.38 0.35 0.33 0.36 0.37 0.39 0.41 0.43 0.46 0.46 0.43 0.43 0.46 0.48 0.44 0.42 0.40 0.39 0.43 0.57 0.56 0.59 0.61 0.54 0.45 0.40 0.37 0.34 0.33 0.34 0.28 0.29 0.26 0.25 0.29 0.31 0.34 0.31 0.26 0.23
0.27 0.21 0.18 0.16 0.15 0.14 0.14 0.14 0.14 0.15 0.14 0.14 0.15 0.16 0.15 0.13 0.12 0.17 0.28 0.31 0.31 0.41 0.49 0.60 0.68 0.74 0.78 0.82 0.76 0.60 0.48 0.45 0.42 0.58 0.67 0.85 0.61 0.54 0.62 0.64 0.68 0.62 0.53 0.41 0.36 0.38 0.35 0.36 0.37 0.37 0.38 0.39 0.41 0.43 0.42 0.39 0.40 0.41 0.46 0.52 0.51 0.46 0.43 0.43 0.43 0.47 0.49 0.51 0.57 0.57 0.52 0.49 0.42 0.35 0.34 0.31 0.29 0.30 0.30 0.35 0.40 0.34 0.34 0.32 0.26
0.24 0.22 0.19 0.17 0.16 0.14 0.15 0.15 0.15 0.15 0.16 0.16 0.15 0.16 0.17 0.17 0.17 0.14 0.15 0.20 0.28 0.33 0.33 0.38 0.46 0.53 0.60 0.69 0.76 0.75 0.60 0.53 0.54 0.71 0.79 0.65 0.53 0.47 0.60 0.67 0.63 0.55 0.52 0.41 0.32 0.33 0.35 0.34 0.37 0.38 0.37 0.38 0.39 0.38 0.39 0.38 0.37 0.38 0.39 0.41 0.44 0.46 0.44 0.41 0.40 0.41 0.43 0.51 0.55 0.49 0.47 0.55 0.49 0.43 0.37 0.34 0.36 0.39 0.37 0.32 0.30 0.31 0.31 0.31 0.29
0.21 0.22 0.21 0.19 0.18 0.16 0.15 0.16 0.17 0.16 0.16 0.17 0.17 0.18 0.17 0.19 0.20 0.20 0.20 0.14 0.16 0.21 0.25 0.26 0.29 0.31 0.32 0.42 0.52 0.51 0.54 0.59 0.55 0.51 0.64 0.64 0.65 0.56 0.50 0.46 0.38 0.33 0.35 0.36 0.33 0.30 0.29 0.28 0.30 0.31 0.31 0.30 0.30 0.30 0.30 0.31 0.31 0.31 0.32 0.34 0.36 0.37 0.38 0.38 0.37 0.39 0.41 0.44 0.49 0.46 0.43 0.43 0.44 0.48 0.52 0.48 0.39 0.33 0.34 0.33 0.30 0.32 0.35 0.37 0.31
0.19 0.18 0.15 0.15 0.17 0.17 0.16 0.17 0.17 0.17 0.16 0.17 0.17 0.18 0.19 0.18 0.20 0.24 0.27 0.26 0.27 0.27 0.22 0.23 0.19 0.17 0.25 0.29 0.37 0.37 0.38 0.41 0.46 0.52 0.57 0.56 0.48 0.43 0.39 0.35 0.35 0.25 0.22 0.21 0.23 0.24 0.24 0.25 0.25 0.25 0.24 0.24 0.23 0.22 0.22 0.23 0.24 0.25 0.25 0.26 0.27 0.28 0.30 0.32 0.32 0.32 0.33 0.34 0.36 0.37 0.38 0.39 0.39 0.41 0.42 0.47 0.48 0.51 0.44 0.40 0.35 0.38 0.33 0.30 0.28
0.19 0.19 0.15 0.13 0.14 0.15 0.16 0.16 0.18 0.18 0.18 0.18 0.18 0.20 0.20 0.19 0.22 0.23 0.24 0.24 0.29 0.29 0.25 0.23 0.22 0.20 0.18 0.21 0.27 0.31 0.33 0.33 0.42 0.51 0.55 0.52 0.45 0.40 0.32 0.27 0.21 0.18 0.19 0.20 0.18 0.19 0.19 0.19 0.19 0.18 0.18 0.17 0.19 0.21 0.21 0.22 0.22 0.23 0.22 0.21 0.20 0.21 0.22 0.24 0.25 0.27 0.28 0.29 0.31 0.32 0.33 0.37 0.38 0.39 0.40 0.40 0.42 0.43 0.42 0.36 0.34 0.32 0.30 0.28 0.28
0.21 0.18 0.16 0.14 0.15 0.16 0.16 0.16 0.17 0.17 0.17 0.17 0.17 0.18 0.18 0.17 0.19 0.20 0.20 0.21 0.25 0.25 0.25 0.21 0.17 0.15 0.15 0.14 0.22 0.25 0.26 0.31 0.38 0.40 0.44 0.42 0.34 0.24 0.19 0.17 0.18 0.19 0.18 0.19 0.18 0.17 0.17 0.17 0.17 0.17 0.16 0.18 0.19 0.20 0.19 0.19 0.19 0.18 0.18 0.17 0.18 0.18 0.20 0.22 0.24 0.23 0.24 0.25 0.27 0.28 0.29 0.33 0.34 0.34 0.34 0.36 0.37 0.37 0.39 0.41 0.41 0.38 0.36 0.32 0.29
0.19 0.18 0.17 0.16 0.17 0.17 0.17 0.17 0.16 0.15 0.15 0.16 0.16 0.17 0.18 0.17 0.19 0.19 0.20 0.20 0.21 0.22 0.22 0.20 0.19 0.16 0.19 0.18 0.19 0.25 0.25 0.24 0.23 0.25 0.27 0.27 0.24 0.19 0.17 0.17 0.19 0.18 0.16 0.16 0.16 0.16 0.16 0.15 0.15 0.15 0.15 0.15 0.14 0.13 0.13 0.14 0.14 0.13 0.13 0.13 0.13 0.15 0.18 0.17 0.20 0.21 0.21 0.21 0.22 0.24 0.27 0.28 0.31 0.33 0.32 0.29 0.29 0.31 0.33 0.32 0.36 0.40 0.42 0.40 0.39
0.17 0.15 0.14 0.15 0.17 0.18 0.18 0.18 0.16 0.15 0.15 0.15 0.15 0.17 0.18 0.18 0.17 0.17 0.19 0.18 0.16 0.18 0.20 0.20 0.19 0.19 0.20 0.23 0.26 0.26 0.22 0.23 0.24 0.25 0.27 0.26 0.22 0.19 0.18 0.19 0.18 0.17 0.17 0.17 0.17 0.16 0.16 0.15 0.15 0.14 0.13 0.12 0.12 0.13 0.13 0.13 0.12 0.12 0.11 0.11 0.11 0.12 0.13 0.13 0.14 0.16 0.18 0.18 0.19 0.20 0.22 0.24 0.26 0.29 0.30 0.28 0.25 0.25 0.27 0.29 0.29 0.31 0.34 0.37 0.38
0.20 0.17 0.15 0.14 0.17 0.17 0.17 0.17 0.17 0.17 0.17 0.17 0.16 0.17 0.18 0.18 0.18 0.19 0.20 0.18 0.16 0.16 0.19 0.21 0.21 0.21 0.23 0.27 0.32 0.29 0.22 0.22 0.21 0.20 0.20 0.21 0.21 0.22 0.19 0.18 0.17 0.18 0.19 0.20 0.19 0.18 0.17 0.16 0.15 0.14 0.13 0.12 0.12 0.13 0.13 0.13 0.13 0.12 0.11 0.11 0.11 0.11 0.12 0.12 0.13 0.13 0.14 0.16 0.18 0.17 0.18 0.19 0.20 0.23 0.26 0.26 0.26 0.25 0.26 0.26 0.25 0.29 0.28 0.26 0.26
0.22 0.20 0.18 0.17 0.17 0.19 0.17 0.17 0.17 0.18 0.18 0.18 0.18 0.18 0.19 0.19 0.19 0.20 0.20 0.17 0.16 0.16 0.18 0.21 0.23 0.23 0.26 0.31 0.29 0.31 0.26 0.26 0.24 0.23 0.23 0.21 0.19 0.18 0.17 0.17 0.19 0.18 0.19 0.20 0.20 0.19 0.18 0.17 0.15 0.13 0.12 0.12 0.12 0.13 0.13 0.13 0.12 0.12 0.12 0.11 0.11 0.11 0.11 0.11 0.12 0.12 0.13 0.13 0.15 0.16 0.17 0.18 0.19 0.20 0.21 0.23 0.25 0.25 0.24 0.26 0.28 0.28 0.28 0.28 0.25
0.22 0.22 0.21 0.19 0.17 0.19 0.19 0.17 0.18 0.17 0.17 0.17 0.17 0.19 0.20 0.19 0.19 0.21 0.20 0.18 0.17 0.16 0.17 0.18 0.20 0.22 0.25 0.28 0.27 0.29 0.22 0.22 0.22 0.21 0.22 0.22 0.20 0.19 0.19 0.18 0.18 0.19 0.19 0.20 0.21 0.20 0.18 0.16 0.15 0.14 0.13 0.13 0.13 0.13 0.14 0.13 0.13 0.13 0.13 0.12 0.12 0.11 0.12 0.12 0.12 0.12 0.12 0.13 0.13 0.13 0.14 0.16 0.18 0.20 0.20 0.23 0.21 0.22 0.23 0.24 0.26 0.27 0.29 0.29 0.28
0.22 0.23 0.23 0.21 0.20 0.21 0.22 0.20 0.18 0.17 0.15 0.15 0.16 0.18 0.19 0.19 0.20 0.21 0.19 0.18 0.17 0.16 0.17 0.17 0.18 0.19 0.21 0.22 0.22 0.21 0.19 0.19 0.19 0.21 0.22 0.20 0.20 0.19 0.18 0.18 0.18 0.19 0.19 0.19 0.20 0.19 0.17 0.16 0.15 0.14 0.14 0.14 0.14 0.15 0.15 0.15 0.14 0.14 0.14 0.14 0.13 0.13 0.13 0.12 0.12 0.13 0.13 0.12 0.12 0.12 0.13 0.14 0.15 0.16 0.17 0.19 0.20 0.20 0.21 0.21 0.22 0.23 0.24 0.28 0.28
0.22 0.23 0.23 0.23 0.22 0.20 0.20 0.20 0.19 0.18 0.18 0.18 0.17 0.17 0.18 0.19 0.19 0.19 0.18 0.16 0.16 0.16 0.17 0.17 0.18 0.19 0.21 0.21 0.20 0.18 0.18 0.18 0.19 0.20 0.21 0.19 0.18 0.18 0.18 0.18 0.18 0.18 0.18 0.17 0.17 0.16 0.16 0.16 0.15 0.14 0.12 0.12 0.13 0.14 0.14 0.13 0.14 0.14 0.14 0.14 0.14 0.14 0.13 0.13 0.14 0.14 0.14 0.14 0.13 0.13 0.13 0.12 0.13 0.14 0.15 0.16 0.18 0.19 0.19 0.20 0.21 0.21 0.21 0.23 0.25
0.22 0.22 0.24 0.24 0.21 0.21 0.20 0.20 0.20 0.19 0.18 0.18 0.17 0.16 0.16 0.17 0.19 0.19 0.17 0.16 0.16 0.17 0.17 0.18 0.18 0.19 0.21 0.22 0.21 0.20 0.20 0.19 0.20 0.20 0.21 0.20 0.19 0.17 0.17 0.18 0.19 0.18 0.17 0.16 0.16 0.16 0.15 0.15 0.15 0.14 0.13 0.12 0.11 0.11 0.11 0.11 0.12 0.13 0.14 0.15 0.14 0.14 0.14 0.15 0.14 0.15 0.15 0.15 0.14 0.13 0.13 0.13 0.13 0.14 0.14 0.14 0.15 0.17 0.18 0.19 0.19 0.20 0.21 0.21 0.23
0.21 0.22 0.23 0.24 0.23 0.21 0.20 0.19 0.20 0.19 0.19 0.21 0.21 0.19 0.17 0.16 0.18 0.19 0.18 0.17 0.17 0.18 0.18 0.18 0.18 0.20 0.22 0.23 0.23 0.22 0.22 0.21 0.21 0.21 0.21 0.20 0.19 0.17 0.17 0.18 0.18 0.18 0.18 0.17 0.16 0.15 0.15 0.15 0.15 0.14 0.13 0.11 0.09 0.09 0.09 0.09 0.09 0.10 0.11 0.11 0.12 0.13 0.14 0.14 0.14 0.13 0.13 0.14 0.14 0.13 0.13 0.13 0.12 0.13 0.14 0.15 0.16 0.16 0.17 0.17 0.18 0.19 0.19 0.20 0.22
0.21 0.22 0.22 0.23 0.24 0.23 0.22 0.22 0.22 0.23 0.22 0.22 0.23 0.21 0.17 0.18 0.20 0.18 0.17 0.19 0.18 0.19 0.19 0.19 0.18 0.20 0.22 0.24 0.24 0.23 0.23 0.21 0.21 0.21 0.21 0.20 0.19 0.18 0.16 0.16 0.16 0.15 0.14 0.13 0.13 0.13 0.13 0.13 0.13 0.13 0.12 0.10 0.09 0.08 0.08 0.08 0.08 0.08 0.08 0.09 0.09 0.10 0.10 0.11 0.11 0.11 0.11 0.12 0.12 0.12 0.12 0.12 0.12 0.12 0.12 0.13 0.14 0.15 0.16 0.16 0.17 0.17 0.18 0.19 0.20
0.21 0.22 0.22 0.22 0.22 0.25 0.26 0.27 0.26 0.25 0.24 0.24 0.23 0.20 0.19 0.18 0.20 0.17 0.18 0.18 0.18 0.19 0.20 0.18 0.18 0.20 0.22 0.25 0.25 0.24 0.22 0.20 0.19 0.19 0.19 0.19 0.18 0.17 0.17 0.17 0.16 0.14 0.13 0.11 0.10 0.10 0.10 0.10 0.10 0.10 0.10 0.09 0.08 0.08 0.08 0.08 0.07 0.07 0.08 0.08 0.08 0.09 0.09 0.09 0.09 0.09 0.09 0.09 0.09 0.10 0.10 0.11 0.11 0.11 0.12 0.13 0.13 0.14 0.15 0.15 0.15 0.15 0.16 0.17 0.18
0.21 0.22 0.22 0.22 0.23 0.24 0.26 0.28 0.28 0.28 0.27 0.25 0.22 0.21 0.21 0.20 0.18 0.17 0.19 0.19 0.20 0.21 0.20 0.19 0.18 0.19 0.20 0.22 0.24 0.23 0.22 0.20 0.18 0.17 0.17 0.17 0.16 0.15 0.15 0.14 0.13 0.12 0.11 0.09 0.08 0.08 0.08 0.08 0.08 0.08 0.09 0.09 0.08 0.08 0.08 0.08 0.08 0.08 0.08 0.08 0.08 0.07 0.07 0.08 0.08 0.08 0.08 0.08 0.08 0.08 0.08 0.08 0.08 0.08 0.09 0.10 0.11 0.12 0.13 0.14 0.14 0.15 0.15 0.16 0.17
0.21 0.21 0.22 0.22 0.23 0.24 0.24 0.26 0.26 0.26 0.25 0.24 0.24 0.24 0.21 0.16 0.15 0.17 0.18 0.19 0.20 0.20 0.18 0.18 0.18 0.19 0.19 0.20 0.20 0.19 0.18 0.16 0.15 0.15 0.14 0.14 0.13 0.12 0.11 0.10 0.10 0.09 0.08 0.08 0.07 0.06 0.06 0.06 0.06 0.07 0.07 0.07 0.07 0.07 0.07 0.08 0.08 0.08 0.08 0.08 0.07 0.07 0.08 0.07 0.07 0.07 0.08 0.08 0.07 0.07 0.07 0.07 0.07 0.07 0.08 0.08 0.09 0.09 0.10 0.11 0.12 0.13 0.14 0.15 0.15
0.20 0.21 0.21 0.23 0.24 0.24 0.24 0.25 0.24 0.24 0.24 0.25 0.23 0.21 0.18 0.16 0.17 0.17 0.19 0.19 0.20 0.20 0.19 0.19 0.19 0.18 0.18 0.18 0.18 0.17 0.15 0.13 0.12 0.12 0.11 0.10 0.10 0.09 0.08 0.08 0.07 0.06 0.06 0.06 0.05 0.05 0.05 0.05 0.05 0.05 0.06 0.06 0.06 0.07 0.07 0.07 0.08 0.09 0.08 0.07 0.08 0.08 0.07 0.08 0.07 0.07 0.07 0.08 0.07 0.07 0.07 0.06 0.06 0.06 0.07 0.07 0.08 0.08 0.09 0.10 0.11 0.11 0.12 0.13 0.13